Flag for Germany Weather past 2 weeks in Düren, North Rhine-Westphalia, Germany

Now
43 °F

Partly sunny.


Feels Like: 36 °F
Forecast: 35 / 42 °F
Wind: 13 mph from South

Location: Noervenich

Current Time: Jan 28, 2015 at 3:29:22 PM

Latest Report: Jan 28, 2015 at 2:20 PM


Visibility: N/A

Pressure: 29.62 "Hg

Humidity: 71%

Dew point: 34 °F

Location of DürenLocation

Historic Weather in Düren — Graph

°F

Düren temperature yesterday

Maximum temperature yesterday: 41 °F (at 1:20 PM)
Minimum temperature yesterday: 37 °F (at 1:20 AM)
Average temperature yesterday: 39 °F

Past Weeks' High & Low Weather Summary

 TemperatureHumidityPressure
High54 °F (Jan 13, 2:20 PM)100% (Jan 17, 6:20 AM)30.42 "Hg (Jan 17, 6:20 AM)
Low25 °F (Jan 24, 3:20 AM)61% (Jan 18, 2:20 PM)29.47 "Hg (Jan 15, 3:20 PM)
Average37 °F84%29.98 "Hg
* Reported Jan 13 2:20 PM — Jan 28 2:20 PM, Düren, Weather by CustomWeather, © 2014

Note: Actual official high and low records may vary slightly from our data, if they occured in-between our weather recording intervals... More about our weather records

Advertising

Düren weather history for previous 24 hours

 ConditionsComfort  
Time TempWeatherWind HumidityBarometerVisibility
2:20 PM
Jan 28
43 °FPartly sunny.13 mph71%29.62 "HgN/A
1:20 PM43 °FBroken clouds.8 mph71%29.68 "HgN/A
12:20 PM43 °FBroken clouds.10 mph71%29.77 "HgN/A
11:20 AM43 °FBroken clouds.9 mph76%29.86 "HgN/A
10:20 AM41 °FPartly sunny.8 mph81%29.89 "HgN/A
9:20 AM41 °FPartly sunny.5 mph76%29.92 "HgN/A
8:20 AM41 °FPartly sunny.7 mph76%29.95 "HgN/A
7:20 AM39 °FPassing clouds.5 mph81%29.98 "HgN/A
6:20 AM39 °FPassing clouds.6 mph87%30.01 "HgN/A
5:20 AM39 °FPartly cloudy.5 mph81%30.04 "HgN/A
4:20 AM37 °FPassing clouds.3 mph87%30.07 "HgN/A
3:20 AM37 °FPartly cloudy.3 mph87%30.09 "HgN/A
2:20 AM37 °FPartly cloudy.2 mph87%30.12 "HgN/A
1:20 AM37 °FPartly cloudy.5 mph87%30.15 "HgN/A
12:20 AM39 °FPassing clouds.5 mph87%30.15 "HgN/A
11:20 PM
Jan 27
37 °FPassing clouds.5 mph87%30.18 "HgN/A
10:20 PM39 °FPassing clouds.6 mph87%30.18 "HgN/A
9:55 PM39 °FPartly cloudy.5 mph87%30.18 "HgN/A
9:20 PM41 °FPassing clouds.7 mph87%30.18 "HgN/A
8:20 PM39 °FPassing clouds.7 mph93%30.21 "HgN/A
7:20 PM41 °FPassing clouds.8 mph87%30.21 "HgN/A
6:20 PM39 °FPartly cloudy.8 mph93%30.21 "HgN/A
5:20 PM41 °FPartly cloudy.9 mph87%30.18 "HgN/A
4:20 PM41 °FBroken clouds.9 mph87%30.18 "HgN/A
3:20 PM41 °FBroken clouds.9 mph87%30.18 "HgN/A
Weather by CustomWeather, © 2014

See weather overviewHow to use our weather pages